Location: *
(55.5817°S, 142.4781°W)
Time: 06:45:59
(UTC+00:00)

UNK - Pass Details

Date: 29 April 2025
Orbit: 655 x 675 km, 98.4° (Epoch: 23 May)

Event Time Altitude Azimuth Distance (km) Brightness Sun altitude
Rises 14:41:55 0° 165° (SSE) 3,044 7.3 -18.4°
Reaches altitude 10° 14:44:10 10° 167° (SSE) 2,127 6.5 -18.1°
Maximum altitude 14:48:48 75° 250° (WSW) 708 3.6 -17.5°
Drops below altitude 10° 14:53:25 10° 335° (NNW) 2,113 6.1 -16.8°
Sets 14:55:39 0° 336° (NNW) 3,023 6.9 -16.5°
